Simultaneous Nadir Overpasses (SNOs) Predictions

Prediction of SNOs between AQUA and GOES-15 Satellite Orbit:

Table of predicted SNOs for the next 14.0 days since TLE Epoch: 5/23/2015
Index Date Time (AQUA) AQUA Lat,Lon GOES-15 Lat,Lon Distance(km) Time Diff (sec)
1 05/24/2015 10:38:40 0.11,-135.60 0.03,-135.29 36.13 80
2 05/26/2015 10:26:31 -0.52,-132.66 0.03,-135.25 294.43 80
3 05/26/2015 22:47:55 -0.61,-137.85 -0.02,-135.21 300.06 80
4 05/28/2015 22:35:46 0.05,-134.91 -0.02,-135.17 30.00 80
5 05/30/2015 22:23:36 0.67,-131.96 -0.02,-135.12 359.36 80
6 05/31/2015 10:44:52 0.44,-137.12 0.01,-135.12 226.90 80
7 06/02/2015 10:32:42 -0.19,-134.17 0.01,-135.06 101.61 80
8 06/02/2015 22:54:06 -0.91,-139.36 0.01,-135.02 493.25 80
9 06/04/2015 10:20:31 -0.79,-131.21 0.01,-134.99 429.49 80
10 06/04/2015 22:41:55 -0.31,-136.41 0.00,-134.95 165.54 80




NCC Satellite Simultaneous Nadir Overpasses (SNOs) Prediction Service
